Tracking 27097 objects as of 29-Mar-2023
HD Live streaming from Space Station
objects crossing your sky now

STARLINK-5196

Track STARLINK-5196 now!
10-day predictions
STARLINK-5196 is classified as:


NORAD ID: 55319
Int'l Code: 2023-010BC
Perigee: 363.5 km
Apogee: 369.0 km
Inclination: 70.0 °
Period: 91.7 minutes
Semi major axis: 6737 km
RCS: Unknown
Launch date: January 19, 2023
Source: United States (US)
Launch site: AIR FORCE WESTERN TEST RANGE (AFWTR)
Your satellite tracking list
Your tracking list is empty




NASA's NSSDC Master Catalog

Two Line Element Set (TLE):
1 55319U 23010BC  23087.79880285  .00001799  00000-0  16724-4 0  9996
2 55319  70.0008 236.9643 0004057 280.4225  79.6513 15.69932524 12417
Source of the keplerian elements: AFSPC